Weather in Magaluf

Spain     39°30′48″N   2°31′58″E
temp.,
°C
wind,
m/s
gust,
m/s
humid.,
%
clouds,
%
prec.,
mm/h
press.,
hPa
HPBL,
m
28 july, wed
wed2823:00+24ese44720 0.0 1014275
02:00+23e34770 0.0 1014254
05:00+23nne22720 0.0 101393
08:00+24nne33710 0.0 1013173
11:00+28s12520 0.0 1014621
14:00+29wsw33540 0.0 1014814
17:00+28sw33570 0.0 1014736
20:00+28sw21620 0.0 1013348
29 july, thu
thu2923:00+25se22710 0.0 1015112
02:00+23ene33720 0.0 1015116
05:00+23ne23700 0.0 101497
08:00+24nne22690 0.0 1014142
11:00+27sse33540 0.0 1015552
14:00+28ssw44540 0.0 1015648
17:00+28s33580 0.0 1013558
20:00+27sse33660 0.0 1012397
30 july, fri
fri3023:00+24se44810 0.0 1012196
02:00+24s34840 0.0 1013303
05:00+24ssw22861 0.0 1011287
08:00+25se22840 0.0 1011237
11:00+27s54738 0.0 1013600
14:00+29sw33682 0.0 1012532
17:00+30wnw44620 0.0 1010440
20:00+29s336498 0.0 1009197
31 july, sat
sat3123:00+26sse34872 0.0 1012213
02:00+25e22890 0.0 1011167
05:00+24ene559144 0.0 1010181
08:00+24e678727 0.0 1010435
11:00+28ese346211 0.0 1010803
14:00+28s236718 0.0 1010767
17:00+29nw22625 0.0 1008712
20:00+28se45670 0.0 1008525
1 august, sun
sun123:00+24ne3379100 0.0 1011161
02:00+24ene3483100 0.1 1012224
05:00+23ne5573100 0.0 1012325
08:00+23ene3464100 0.0 1014420
11:00+26e125192 0.0 10151301
14:00+26wsw2254100 0.0 10151050
17:00+26sse3257100 0.0 1015860
20:00+25sse4465100 0.0 1014643